Погода в Сан-Джиминьяно

Италия     43°28′07″N   11°02′34″E
темп.,
°C
ветер,
м/с
пор.,
м/с
влажн.,
%
обл.,
%
осадки,
мм/ч
давл.,
гПа
погр.,
м
24 мая, вт
вт2423:00+16ююв117548 0.0 100912
02:00+14ююв32765 0.0 100820
05:00+13юв228579 0.0 100713
08:00+18юв1167100 0.0 1008153
11:00+23ю245575 0.0 10081128
14:00+28зсз1543100 0.0 10062214
17:00+26з674641 0.0 10071371
20:00+21з35665 0.0 100896
25 мая, ср
ср2523:00+16ю228769 0.0 101011
02:00+15юв229269 0.0 101115
05:00+15вюв22945 0.0 101113
08:00+19вюв228121 0.0 1012213
11:00+25ююв235290 0.0 10131230
14:00+29ю3435100 0.0 10122268
17:00+29ююз333296 0.0 10121662
20:00+22з1159100 0.0 101417
26 мая, чт
чт2623:00+17всв117771 0.0 101711
02:00+16вюв227812 0.0 101711
05:00+15юв116639 0.0 101711
08:00+20юв115398 0.0 1019110
11:00+26вюв3439100 0.2 1019667
14:00+30в2327100 0.2 10181269
17:00+27зюз344246 0.0 1017211
20:00+24ссз1152100 0.0 101811
27 мая, пт
пт2723:00+20в225981 0.0 101811
02:00+18юв2262100 0.0 101911
05:00+18ю225991 0.0 101819
08:00+22ю115152 0.0 101885
11:00+29з0127100 0.0 1017746
14:00+32ссв2322100 0.0 10151753
17:00+33сз352097 0.0 10132337
20:00+25з2242100 0.0 101311
28 мая, сб
сб2823:00+21ю1145100 0.0 101311
02:00+18юв115195 0.0 101211
05:00+18ююв2251100 0.0 101221
08:00+21всв114531 0.0 1012112
11:00+28зсз123338 0.0 1011953
14:00+31ссз342794 0.0 10092573
17:00+29з65325 0.0 10081445
20:00+24зсз22468 0.1 100818